Location: Unspecified
(0.0000°N, 0.0000°E)
Time: 15:10:25
(UTC+00:00)

Tiros 1 despin weight - All Passes

Search period start: 12 April 2021 00:00
Search period end: 22 April 2021 00:00
Orbit: 593 x 641 km, 48.2° (Epoch: 11 April)

Date Brightness Start Highest point End Pass type
(mag) Time Alt. Az. Time Alt. Az. Time Alt. Az.
12 Apr - 04:48:06 10° SSW 04:52:42 62° SE 04:57:14 10° NE visible
12 Apr - 16:56:12 10° NW 17:00:36 80° SW 17:05:06 10° SE daylight
13 Apr - 03:25:15 10° SSE 03:27:31 13° SE 03:29:46 10° ESE visible
13 Apr - 05:04:29 10° SW 05:08:58 47° NW 05:13:22 10° NNE visible
13 Apr - 15:32:19 10° N 15:35:32 20° NE 15:38:48 10° E daylight
13 Apr - 17:13:05 10° WNW 17:16:53 28° SW 17:20:45 10° S daylight
14 Apr - 03:39:38 10° SSW 03:43:52 34° SE 03:48:02 10° ENE visible
14 Apr - 05:22:04 10° W 05:25:15 18° NW 05:28:24 10° N visible
14 Apr - 15:47:31 10° NNW 15:51:49 54° NE 15:56:11 10° SE daylight
14 Apr - 17:32:18 10° WSW 17:33:15 11° SW 17:34:14 10° SW daylight
15 Apr - 03:55:27 10° SW 04:00:08 87° NW 04:04:45 10° NE visible
15 Apr - 14:25:29 10° NNE 14:26:42 11° NE 14:27:54 10° ENE daylight
15 Apr - 16:03:48 10° NW 16:08:04 51° SW 16:12:24 10° SSE daylight
16 Apr - 02:31:36 10° S 02:35:00 20° SE 02:38:22 10° E visible
16 Apr - 04:12:15 10° WSW 04:16:24 32° NW 04:20:30 10° NNE visible
16 Apr - 14:39:12 10° N 14:43:01 29° NE 14:46:52 10° ESE daylight
16 Apr - 16:21:14 10° W 16:24:23 19° SW 16:27:33 10° S daylight
17 Apr - 02:46:45 10° SSW 02:51:18 51° SE 02:55:48 10° NE visible
17 Apr - 04:30:46 10° WNW 04:32:43 12° NW 04:34:39 10° NNW visible
17 Apr - 14:54:53 10° NW 14:59:17 84° NE 15:03:43 10° SE daylight
18 Apr - 01:24:42 10° SSE 01:26:05 11° SE 01:27:29 10° ESE night (unlit)
18 Apr - 03:02:58 10° SW 03:07:34 58° NW 03:12:07 10° NNE visible
18 Apr - 13:31:24 10° N 13:34:12 16° NE 13:37:00 10° E daylight
18 Apr - 15:11:34 10° WNW 15:15:32 33° SW 15:19:33 10° SSE daylight
19 Apr - 01:38:24 10° S 01:42:27 28° SE 01:46:27 10° ENE night (unlit)
19 Apr - 03:20:14 10° W 03:23:50 22° NW 03:27:24 10° N visible
19 Apr - 13:46:18 10° NNW 13:50:29 44° NE 13:54:42 10° ESE daylight
19 Apr - 15:29:55 10° WSW 15:31:53 13° SW 15:33:50 10° SSW daylight
20 Apr - 01:54:02 10° SW 01:58:43 78° SE 02:03:22 10° NE night (unlit)
20 Apr - 14:02:23 10° NW 14:06:44 62° SW 14:11:06 10° SSE daylight
21 Apr - 00:30:35 10° S 00:33:34 17° SE 00:36:32 10° E night (unlit)
21 Apr - 02:10:38 10° WSW 02:14:59 38° NW 02:19:18 10° NNE night (unlit)
21 Apr - 12:38:05 10° N 12:41:40 24° NE 12:45:15 10° ESE daylight
21 Apr - 14:19:34 10° WNW 14:23:01 22° SW 14:26:29 10° S daylight
